Tracking 23752 objects as of 23-Oct-2021
HD Live streaming from Space Station
objects crossing your sky now

SL-8 DEB

Track SL-8 DEB now!
10-day predictions


NORAD ID: 39699
Int'l Code: 1991-009DN
Perigee: 1,496.4 km
Apogee: 1,729.8 km
Inclination: 74.1 °
Period: 118.3 minutes
Semi major axis: 7984 km
RCS: 0.0155 m2 (small)
Launch date: February 12, 1991
Source: Commonwealth of Independent States (former USSR) (CIS)
Launch site: PLESETSK MISSILE AND SPACE COMPLEX (PKMTR)

Note: This is SATELLITE DEBRIS
aabbcc
Your satellite tracking list
Your tracking list is empty




NASA's NSSDC Master Catalog

Two Line Element Set (TLE):
1 39699U 91009DN  21294.01239318  .00000114  00000-0  12485-2 0  9998
2 39699  74.0951 312.2316 0146120 241.4255 117.2008 12.16927965333690
Source of the keplerian elements: AFSPC